FW5442 Weather Reports


time (UTC)temp
F
wind
direction
speed
knots
gust
knots
rain 1hr
in
rain 24hr
in
rain mn
in
humidity
%
barometer
mb
20260905011100 83 309 0.9 4.3 0.00 0.00 0.00 69 1012.4
20260905010557 83 162 2.6 4.3 0.00 0.00 0.00 69 1012.3
20260905010110 84 160 2.6 4.3 0.00 0.00 0.00 68 1012.4
20260905005556 85 143 2.6 5.2 0.00 0.00 0.00 66 1012.4
20260905005053 85 194 4.3 5.2 0.00 0.00 0.00 65 1012.5
20260905004603 85 180 3.5 4.3 0.00 0.00 0.00 64 1012.3
20260905004056 86 169 1.7 3.5 0.00 0.00 0.00 64 1012.4
20260905003558 86 185 1.7 2.6 0.00 0.00 0.00 64 1012.4
20260905003100 86 157 0.9 3.5 0.00 0.00 0.00 63 1012.7
20260905002552 87 0 0.0 3.5 0.00 0.00 0.00 63 1012.5
20260905002057 87 134 2.6 3.5 0.00 0.00 0.00 62 1012.6
20260905001611 88 173 1.7 3.5 0.00 0.00 0.00 61 1012.5
20260905001056 88 150 1.7 5.2 0.00 0.00 0.00 61 1012.5
20260905000557 88 161 3.5 5.2 0.00 0.00 0.00 60 1012.3
20260905000108 89 160 3.5 5.2 0.00 0.00 0.00 57 1012.3
20260904235556 89 213 3.5 6.1 0.00 0.00 0.00 57 1012.3
20260904235054 89 221 4.3 6.1 0.00 0.00 0.00 57 1012.3
20260904234607 88 230 5.2 7.0 0.00 0.00 0.00 57 1012.3
20260904234053 88 228 4.3 7.8 0.00 0.00 0.00 57 1012.2
20260904233554 88 230 6.1 10.4 0.00 0.00 0.00 58 1012.2
20260904233058 88 235 7.0 11.3 0.00 0.00 0.00 58 1012.2
20260904232554 87 243 8.7 12.2 0.00 0.00 0.00 58 1012.2
20260904232053 87 261 8.7 12.2 0.00 0.00 0.00 58 1012.2
20260904231557 87 240 10.4 12.2 0.00 0.00 0.00 58 1012.2
20260904231055 88 252 10.4 13.0 0.00 0.00 0.00 58 1012.0
20260904230554 88 226 9.6 16.5 0.00 0.00 0.00 57 1012.0
20260904230113 89 217 13.0 16.5 0.00 0.00 0.00 56 1012.1
20260904225553 90 218 12.2 16.5 0.00 0.00 0.00 54 1012.0
20260904225053 92 202 10.4 16.5 0.00 0.00 0.00 52 1012.0
20260904224602 93 160 11.3 15.6 0.00 0.00 0.00 49 1011.7
20260904224056 94 169 10.4 15.6 0.00 0.00 0.00 47 1011.7
20260904223555 95 124 8.7 15.6 0.00 0.00 0.00 44 1011.6
20260904223105 96 100 5.2 7.0 0.00 0.00 0.00 42 1011.4
20260904222553 97 110 1.7 4.3 0.00 0.00 0.00 41 1011.3
20260904222054 98 90 1.7 4.3 0.00 0.00 0.00 38 1011.4
20260904221608 98 85 0.0 2.6 0.00 0.00 0.00 37 1011.4
20260904221056 99 96 0.0 4.3 0.00 0.00 0.00 37 1011.4
20260904220554 99 85 0.9 6.1 0.00 0.00 0.00 37 1011.2
20260904220121 99 93 1.7 6.1 0.00 0.00 0.00 38 1011.2
20260904215554 100 80 3.5 5.2 0.00 0.00 0.00 38 1011.3
20260904215053 100 117 3.5 5.2 0.00 0.00 0.00 38 1011.3
20260904214603 100 109 3.5 7.0 0.00 0.00 0.00 39 1011.2
20260904214053 99 124 2.6 7.0 0.00 0.00 0.00 39 1011.2
20260904213553 100 115 3.5 7.0 0.00 0.00 0.00 37 1011.5
20260904213108 100 187 0.9 5.2 0.00 0.00 0.00 36 1011.5
20260904212553 100 37 3.5 5.2 0.00 0.00 0.00 37 1011.4
20260904212054 100 328 0.0 4.3 0.00 0.00 0.00 38 1011.4
20260904211607 99 0 0.9 5.2 0.00 0.00 0.00 39 1011.6
20260904211053 97 319 3.5 8.7 0.00 0.00 0.00 40 1011.7
20260904210556 97 326 2.6 8.7 0.00 0.00 0.00 41 1011.7
20260904205553 97 337 6.1 10.4 0.00 0.00 0.00 42 1011.5
20260904205053 98 323 5.2 12.2 0.00 0.00 0.00 41 1011.6
20260904204606 98 352 3.5 12.2 0.00 0.00 0.00 40 1011.7
20260904204055 99 309 4.3 12.2 0.00 0.00 0.00 40 1011.8
20260904203554 98 6 2.6 8.7 0.00 0.00 0.00 42 1011.9
20260904203057 99 342 3.5 10.4 0.00 0.00 0.00 41 1011.9
20260904202555 98 269 5.2 12.2 0.00 0.00 0.00 42 1012.1
20260904202055 98 176 6.1 12.2 0.00 0.00 0.00 42 1012.2
20260904201606 98 275 6.1 12.2 0.00 0.00 0.00 43 1012.3
20260904201052 98 250 4.3 11.3 0.00 0.00 0.00 42 1012.4
20260904200553 98 156 5.2 8.7 0.00 0.00 0.00 43 1012.6
20260904200110 98 265 0.9 11.3 0.00 0.00 0.00 43 1012.7
20260904195557 96 294 2.6 13.0 0.00 0.00 0.00 44 1012.7
20260904195057 96 292 8.7 13.0 0.00 0.00 0.00 44 1012.9
20260904194606 97 210 7.8 12.2 0.00 0.00 0.00 44 1013.0
20260904194056 97 243 9.6 12.2 0.00 0.00 0.00 44 1013.1
20260904193557 98 231 3.5 7.8 0.00 0.00 0.00 43 1013.0
20260904193104 98 1 1.7 5.2 0.00 0.00 0.00 44 1013.1
20260904192555 97 335 3.5 4.3 0.00 0.00 0.00 44 1013.1
20260904192056 96 356 1.7 4.3 0.00 0.00 0.00 46 1013.2
20260904191601 96 315 1.7 4.3 0.00 0.00 0.00 46 1013.1
20260904191054 96 0 0.0 4.3 0.00 0.00 0.00 45 1013.1
20260904190553 96 337 0.9 2.6 0.00 0.00 0.00 44 1013.3
20260904190106 96 32 0.0 4.3 0.00 0.00 0.00 44 1013.3
20260904185553 96 343 1.7 5.2 0.00 0.00 0.00 45 1013.5
20260904185059 96 4 1.7 7.0 0.00 0.00 0.00 44 1013.5
20260904184611 96 10 3.5 7.0 0.00 0.00 0.00 44 1013.7
20260904184053 96 342 3.5 7.8 0.00 0.00 0.00 43 1013.7
20260904183554 97 309 3.5 7.8 0.00 0.00 0.00 43 1013.8
20260904183058 98 11 2.6 8.7 0.00 0.00 0.00 42 1013.9
20260904182553 98 281 5.2 8.7 0.00 0.00 0.00 44 1013.9
20260904182054 98 349 3.5 5.2 0.00 0.00 0.00 43 1014.1
20260904181601 99 330 1.7 3.5 0.00 0.00 0.00 43 1014.1
20260904181055 99 249 0.0 5.2 0.00 0.00 0.00 40 1014.3
20260904180555 98 52 0.9 6.1 0.00 0.00 0.00 42 1014.2
20260904180114 98 188 3.5 8.7 0.00 0.00 0.00 42 1014.2
20260904175554 98 150 2.6 8.7 0.00 0.00 0.00 44 1014.3
20260904175056 98 156 5.2 8.7 0.00 0.00 0.00 44 1014.4
20260904174621 97 181 5.2 7.0 0.00 0.00 0.00 45 1014.5
20260904174055 97 162 0.9 7.0 0.00 0.00 0.00 45 1014.6
20260904173554 96 134 4.3 8.7 0.00 0.00 0.00 47 1014.7
20260904173056 96 113 4.3 8.7 0.00 0.00 0.00 46 1014.8
20260904172553 98 115 4.3 7.0 0.00 0.00 0.00 45 1015.0
20260904172053 97 106 2.6 5.2 0.00 0.00 0.00 46 1014.8
20260904171604 97 0 1.7 6.1 0.00 0.00 0.00 46 1015.1
20260904171056 96 169 2.6 6.1 0.00 0.00 0.00 45 1015.2
20260904170553 97 94 0.9 5.2 0.00 0.00 0.00 46 1015.3
20260904170100 96 133 1.7 5.2 0.00 0.00 0.00 46 1015.3
20260904165557 96 43 2.6 5.2 0.00 0.00 0.00 47 1015.3
20260904165057 95 96 0.9 6.1 0.00 0.00 0.00 49 1015.4
20260904164606 94 312 0.9 6.1 0.00 0.00 0.00 49 1015.5
20260904164053 94 301 2.6 6.1 0.00 0.00 0.00 49 1015.4
20260904163553 94 59 2.6 6.1 0.00 0.00 0.00 49 1015.4
20260904163106 94 120 1.7 4.3 0.00 0.00 0.00 49 1015.5
20260904162556 94 139 1.7 4.3 0.00 0.00 0.00 51 1015.5
20260904162056 94 136 2.6 3.5 0.00 0.00 0.00 51 1015.5
20260904161609 94 126 0.0 3.5 0.00 0.00 0.00 52 1015.5
20260904161055 93 0 0.0 3.5 0.00 0.00 0.00 53 1015.6
20260904160557 92 108 1.7 3.5 0.00 0.00 0.00 53 1015.5
20260904160110 92 88 0.9 3.5 0.00 0.00 0.00 53 1015.5
20260904155556 92 295 0.9 4.3 0.00 0.00 0.00 54 1015.4
20260904155056 92 0 0.9 4.3 0.00 0.00 0.00 54 1015.4
20260904154559 92 359 0.0 2.6 0.00 0.00 0.00 55 1015.6
20260904154053 91 0 0.9 4.3 0.00 0.00 0.00 56 1015.4
20260904153557 90 356 0.9 4.3 0.00 0.00 0.00 57 1015.4
20260904153129 90 302 0.0 2.6 0.00 0.00 0.00 57 1015.4
20260904152554 88 8 0.0 2.6 0.00 0.00 0.00 60 1015.5
20260904152057 87 15 0.9 3.5 0.00 0.00 0.00 60 1015.4
20260904151606 87 340 1.7 3.5 0.00 0.00 0.00 62 1015.5
20260904151056 86 297 1.7 3.5 0.00 0.00 0.00 63 1015.2
20260904150553 86 287 1.7 3.5 0.00 0.00 0.00 63 1015.2
20260904150100 86 334 1.7 3.5 0.00 0.00 0.00 63 1015.4
20260904145556 86 302 0.9 3.5 0.00 0.00 0.00 66 1015.3
20260904145052 85 276 2.6 3.5 0.00 0.00 0.00 65 1015.1
20260904144603 85 291 1.7 3.5 0.00 0.00 0.00 66 1015.1
20260904144055 85 13 1.7 3.5 0.00 0.00 0.00 68 1014.9
20260904143553 84 320 1.7 2.6 0.00 0.00 0.00 70 1015.0
20260904143103 84 284 0.0 1.7 0.00 0.00 0.00 71 1015.0
20260904142638 83 0 0.0 3.5 0.00 0.00 0.00 72 1015.1
20260904142053 83 294 0.0 3.5 0.00 0.00 0.00 72 1015.0
20260904141558 83 0 0.0 0.0 0.00 0.00 0.00 75 1015.0
20260904141054 82 0 0.0 0.0 0.00 0.00 0.00 76 1015.1
20260904140554 82 0 0.0 0.0 0.00 0.00 0.00 78 1015.2
20260904140105 81 0 0.0 0.0 0.00 0.00 0.00 78 1015.2
20260904135555 81 0 0.0 0.0 0.00 0.00 0.00 79 1015.1
20260904135052 80 0 0.0 0.0 0.00 0.00 0.00 80 1015.1
20260904134609 80 0 0.0 0.9 0.00 0.00 0.00 81 1015.0
20260904134057 80 0 0.0 0.9 0.00 0.00 0.00 81 1015.1
20260904133554 79 0 0.0 0.9 0.00 0.00 0.00 81 1015.1
20260904133108 79 0 0.0 0.0 0.00 0.00 0.00 81 1014.9
20260904132553 79 0 0.0 0.0 0.00 0.00 0.00 83 1014.9
20260904132057 78 0 0.0 0.0 0.00 0.00 0.00 83 1014.9
20260904131601 78 0 0.0 0.0 0.00 0.00 0.00 84 1014.9
20260904131056 77 0 0.0 1.7 0.00 0.00 0.00 84 1015.1
20260904130553 77 0 0.0 1.7 0.00 0.00 0.00 85 1015.0
20260904130114 76 0 0.0 2.6 0.00 0.00 0.00 86 1015.0
20260904125553 76 352 1.7 2.6 0.00 0.00 0.00 86 1015.0
20260904125056 76 359 2.6 2.6 0.00 0.00 0.00 86 1015.0
20260904124606 76 352 1.7 2.6 0.00 0.00 0.00 86 1014.7
20260904124052 76 349 0.9 1.7 0.00 0.00 0.00 86 1014.9
20260904123555 76 357 0.9 1.7 0.00 0.00 0.00 87 1014.9
20260904123102 75 360 0.9 1.7 0.00 0.00 0.00 87 1014.8
20260904122553 75 354 1.7 1.7 0.00 0.00 0.00 88 1014.8
20260904122056 75 354 0.9 1.7 0.00 0.00 0.00 88 1014.8
20260904121601 75 355 0.9 0.9 0.00 0.00 0.00 88 1014.5
20260904121056 75 0 0.0 0.0 0.00 0.00 0.00 88 1014.6
20260904120556 75 0 0.0 0.0 0.00 0.00 0.00 88 1014.7
20260904120108 75 0 0.0 0.0 0.00 0.00 0.00 88 1014.6
20260904115553 75 0 0.0 0.0 0.00 0.00 0.00 88 1014.7
20260904115056 75 0 0.0 0.0 0.00 0.00 0.00 88 1014.6
20260904114611 75 0 0.0 0.0 0.00 0.00 0.00 87 1014.6
20260904114056 75 0 0.0 0.0 0.00 0.00 0.00 86 1014.5
20260904113556 75 0 0.0 0.0 0.00 0.00 0.00 87 1014.3
20260904113106 75 0 0.0 0.0 0.00 0.00 0.00 87 1014.5
20260904112556 75 0 0.0 0.0 0.00 0.00 0.00 87 1014.5
20260904112057 75 0 0.0 0.0 0.00 0.00 0.00 87 1014.6
20260904111558 75 0 0.0 0.0 0.00 0.00 0.00 87 1014.5
20260904111057 75 0 0.0 0.0 0.00 0.00 0.00 87 1014.5
20260904110557 75 0 0.0 0.0 0.00 0.00 0.00 88 1014.4
20260904110057 75 0 0.0 0.0 0.00 0.00 0.00 87 1014.5
20260904105553 75 0 0.0 0.0 0.00 0.00 0.00 87 1014.4
20260904105053 75 0 0.0 0.0 0.00 0.00 0.00 87 1014.3
20260904104559 75 0 0.0 0.0 0.00 0.00 0.00 87 1014.3
20260904104052 75 0 0.0 0.0 0.00 0.00 0.00 87 1014.3
20260904103554 75 0 0.0 0.0 0.00 0.00 0.00 87 1014.3
20260904103104 75 0 0.0 0.0 0.00 0.00 0.00 86 1014.3
20260904102556 76 0 0.0 0.0 0.00 0.00 0.00 86 1014.3
20260904102056 76 0 0.0 0.0 0.00 0.00 0.00 86 1014.2
20260904101557 76 0 0.0 0.0 0.00 0.00 0.00 86 1014.1
20260904101053 76 0 0.0 0.0 0.00 0.00 0.00 86 1014.1
20260904100555 76 0 0.0 0.0 0.00 0.00 0.00 86 1014.1
20260904100059 76 0 0.0 0.0 0.00 0.00 0.00 86 1014.2
20260904095554 76 0 0.0 0.0 0.00 0.00 0.00 85 1014.1
20260904095055 75 0 0.0 0.0 0.00 0.00 0.00 86 1014.1
20260904094610 75 0 0.0 1.7 0.00 0.00 0.00 86 1014.1
20260904094053 75 0 0.0 1.7 0.00 0.00 0.00 85 1014.1
20260904093559 76 0 0.9 1.7 0.00 0.00 0.00 85 1014.1
20260904093114 76 167 0.9 2.6 0.00 0.00 0.00 85 1014.1
20260904092556 76 176 0.9 3.5 0.00 0.00 0.00 85 1014.0
20260904092056 76 172 2.6 3.5 0.00 0.00 0.00 85 1013.9
20260904091557 76 221 3.5 3.5 0.00 0.00 0.00 85 1013.9
20260904091052 76 238 2.6 3.5 0.00 0.00 0.00 85 1013.8
20260904090555 76 241 2.6 3.5 0.00 0.00 0.00 85 1013.7
20260904085555 76 244 0.0 2.6 0.00 0.00 0.00 84 1013.7
20260904085052 76 0 0.0 0.9 0.00 0.00 0.00 84 1013.6
20260904084601 76 0 0.0 0.9 0.00 0.00 0.00 84 1013.7
20260904084052 76 0 0.0 0.9 0.00 0.00 0.00 83 1013.6
20260904083557 76 0 0.0 0.9 0.00 0.00 0.00 83 1013.7
20260904083059 76 0 0.9 1.7 0.00 0.00 0.00 83 1013.6
20260904082556 76 217 0.9 1.7 0.00 0.00 0.00 84 1013.5
20260904082055 76 214 1.7 2.6 0.00 0.00 0.00 85 1013.4
20260904081602 76 195 0.9 2.6 0.00 0.00 0.00 84 1013.3
20260904081054 76 179 2.6 2.6 0.00 0.00 0.00 84 1013.3
20260904080552 75 0 0.0 0.0 0.00 0.00 0.00 84 1013.3
20260904080101 75 0 0.0 0.0 0.00 0.00 0.00 85 1013.1
20260904075555 75 0 0.0 0.0 0.00 0.00 0.00 84 1013.2
20260904075055 76 0 0.0 0.0 0.00 0.00 0.00 83 1013.1
20260904074605 76 0 0.0 0.9 0.00 0.00 0.00 83 1013.2
20260904074058 76 0 0.0 1.7 0.00 0.00 0.00 83 1013.0
20260904073556 76 108 0.9 1.7 0.00 0.00 0.00 84 1013.0
20260904073107 76 107 0.9 1.7 0.00 0.00 0.00 84 1013.1
20260904072555 76 100 0.9 1.7 0.00 0.00 0.00 83 1013.0
20260904072055 76 93 1.7 1.7 0.00 0.00 0.00 83 1013.2
20260904071600 76 95 1.7 1.7 0.00 0.00 0.00 83 1013.2
20260904071052 77 96 0.9 1.7 0.00 0.00 0.00 82 1013.2
20260904070554 77 0 0.0 0.0 0.00 0.00 0.00 82 1013.2
20260904070104 77 0 0.0 0.0 0.00 0.00 0.00 82 1013.2
20260904065553 77 0 0.0 0.0 0.00 0.00 0.00 81 1013.2
20260904065053 77 0 0.0 0.0 0.00 0.00 0.00 81 1013.2
20260904064558 77 0 0.0 0.0 0.00 0.00 0.00 81 1013.3
20260904064055 77 0 0.0 0.0 0.00 0.00 0.00 81 1013.3
20260904063556 77 0 0.0 0.0 0.00 0.00 0.00 82 1013.4
20260904063117 77 0 0.0 0.0 0.00 0.00 0.00 82 1013.3
20260904062552 77 0 0.0 0.0 0.00 0.00 0.00 82 1013.4
20260904062052 77 0 0.0 0.0 0.00 0.00 0.00 82 1013.4
20260904061605 77 0 0.0 0.0 0.00 0.00 0.00 81 1013.4
20260904061052 78 0 0.0 0.0 0.00 0.00 0.00 80 1013.3
20260904060555 78 0 0.0 0.0 0.00 0.00 0.00 80 1013.2
20260904055555 79 0 0.0 0.0 0.00 0.00 0.00 78 1013.3
20260904055055 79 0 0.0 0.0 0.00 0.00 0.00 76 1013.3
20260904054602 79 0 0.0 0.0 0.00 0.00 0.00 76 1013.3
20260904054054 79 0 0.0 0.0 0.00 0.00 0.00 76 1013.2
20260904053555 79 0 0.0 0.0 0.00 0.00 0.00 77 1013.3
20260904053139 79 0 0.0 0.0 0.00 0.00 0.00 77 1013.2
20260904052556 79 0 0.0 2.6 0.00 0.00 0.00 77 1013.3
20260904052100 79 0 0.0 2.6 0.00 0.00 0.00 77 1013.3
20260904051605 79 75 1.7 2.6 0.00 0.00 0.00 77 1013.4
20260904051055 79 82 0.0 1.7 0.00 0.00 0.00 78 1013.3
20260904050555 79 0 0.0 0.0 0.00 0.00 0.00 79 1013.2
20260904050108 79 0 0.0 0.0 0.00 0.00 0.00 78 1013.1
20260904045557 79 0 0.0 0.0 0.00 0.00 0.00 79 1013.2
20260904045055 79 0 0.0 0.0 0.00 0.00 0.00 79 1013.2
20260904044559 79 0 0.0 0.0 0.00 0.00 0.00 78 1013.1
20260904044053 79 0 0.0 0.0 0.00 0.00 0.00 77 1013.3
20260904043552 79 0 0.0 0.0 0.00 0.00 0.00 77 1013.3
20260904043103 79 0 0.0 0.0 0.00 0.00 0.00 77 1013.4
20260904042554 79 0 0.0 0.0 0.00 0.00 0.00 78 1013.5
20260904042056 79 0 0.0 0.0 0.00 0.00 0.00 78 1013.5
20260904041606 79 0 0.0 0.0 0.00 0.00 0.00 78 1013.5
20260904041058 79 0 0.0 0.0 0.00 0.00 0.00 78 1013.5
20260904040552 80 0 0.0 0.0 0.00 0.00 0.00 77 1013.7
20260904040104 79 0 0.0 0.0 0.00 0.00 0.00 77 1013.5
20260904035553 79 0 0.0 0.0 0.00 0.00 0.00 77 1013.6
20260904035052 79 0 0.0 0.0 0.00 0.00 0.00 77 1013.5
20260904034604 79 0 0.0 0.0 0.00 0.00 0.00 77 1013.6
20260904034055 79 0 0.0 0.9 0.00 0.00 0.00 77 1013.5
20260904033554 79 0 0.0 1.7 0.00 0.00 0.00 77 1013.7
20260904033112 79 0 0.9 1.7 0.00 0.00 0.00 77 1013.7
20260904032554 79 103 0.9 1.7 0.00 0.00 0.00 77 1013.9
20260904032052 79 122 0.9 1.7 0.00 0.00 0.00 78 1013.8
20260904031604 79 143 0.9 2.6 0.00 0.00 0.00 78 1013.7
20260904031056 79 144 1.7 3.5 0.00 0.00 0.00 77 1013.7
20260904030552 80 127 1.7 3.5 0.00 0.00 0.00 76 1013.8
20260904025557 80 92 2.6 3.5 0.00 0.00 0.00 77 1013.8
20260904025056 79 98 2.6 3.5 0.00 0.00 0.00 77 1013.7
20260904024605 79 101 2.6 3.5 0.00 0.00 0.00 78 1013.6
20260904024052 79 117 3.5 3.5 0.00 0.00 0.00 79 1013.6
20260904023552 79 98 2.6 3.5 0.00 0.00 0.00 78 1013.4
20260904023059 79 82 2.6 3.5 0.00 0.00 0.00 77 1013.4
20260904022553 80 97 1.7 2.6 0.00 0.00 0.00 75 1013.4
20260904022054 81 0 0.0 0.0 0.00 0.00 0.00 74 1013.3
20260904021606 81 0 0.0 0.0 0.00 0.00 0.00 73 1013.2
20260904021051 81 0 0.0 0.0 0.00 0.00 0.00 74 1013.1
20260904020556 81 0 0.0 0.9 0.00 0.00 0.00 73 1013.1
20260904020123 81 0 0.0 0.9 0.00 0.00 0.00 74 1013.1
20260904015557 82 0 0.0 0.0 0.00 0.00 0.00 73 1013.1
20260904015056 82 0 0.0 0.0 0.00 0.00 0.00 73 1013.2
20260904014649 82 0 0.0 0.0 0.00 0.00 0.00 73 1013.1
20260904014055 82 0 0.0 0.0 0.00 0.00 0.00 73 1013.1
20260904013554 82 0 0.0 0.0 0.00 0.00 0.00 73 1013.1
20260904013109 82 0 0.0 0.0 0.00 0.00 0.00 72 1013.0
20260904012555 82 0 0.0 0.0 0.00 0.00 0.00 72 1013.0
20260904012052 82 0 0.0 0.0 0.00 0.00 0.00 72 1013.0
20260904011608 82 0 0.0 0.0 0.00 0.00 0.00 72 1013.0